Regional Weather Roundup
Issued by NWS

Home | Current Version | Previous Version | Graphics & Text | Print | Product List | Glossary On
Versions: 1 2 3 4 5 6 7 8 9 10 11 12 13 14 15 16 17 18 19 20 21 22 23 24 25 26 27 28 29 30 31 32 33 34 35 36 37 38 39 40 41 42 43 44 45 46 47 48 49 50
382
ASUS43 KIND 241259
RWRIN

WEATHER ROUNDUP FOR INDIANA
NATIONAL WEATHER SERVICE INDIANAPOLIS IN
900 AM EDT SUN JUL 24 2016

NOTE: "FAIR" INDICATES FEW OR NO CLOUDS BELOW 12,000 FEET WITH NO
SIGNIFICANT WEATHER AND/OR OBSTRUCTIONS TO VISIBILITY.

* - STATION DOES NOT REPORT WEATHER SUCH AS PRECIPITATION OR FOG.

+ - STATION NOT QUALITY CONTROLLED BY THE NATIONAL WEATHER SERVICE.
    USE DATA WITH CAUTION...ESPECIALLY DEWPOINT AND RELATIVE
    HUMIDITY OBSERVATIONS.

INZ001>003-010>013-019-020-241400-
NORTHWEST INDIANA

CITY           SKY/WX    TMP DP  RH WIND       PRES   REMARKS
GARY /AIRPORT/ PTSUNNY   73 N/A N/A S9        29.95R
KNOX *+        CLOUDY    72  70  94 S6        29.97S
MONTICELLO +   CLOUDY    74  66  75 S6        29.98R

$$

LMZ046-743>745-241400-
SOUTHERN LAKE MICHIGAN

STATION/POSITION TIME  TEMP    WIND        PRES    WAVE
                       AIR SEA DIR/SP/G            HT
                 (UTC) (F)     (DEG/KT/KT) (MB)    (FT)
BURNS HARBOR     1205   73     170/  8/ 16 1014.2R
MICHIGAN CITY    1200   73     140/ 10/ 12   N/A
5NW MICH CITY    1200   73 73  180/ 12/ 16   N/A     1

$$

INZ004-005-014>016-021>024-241400-
NORTH CENTRAL INDIANA

CITY           SKY/WX    TMP DP  RH WIND       PRES   REMARKS
ELKHART        CLOUDY    73  73 100 CALM      29.98R
GOSHEN         CLOUDY    74  70  87 SW3       29.99R
SOUTH BEND     SUNNY     73  72  96 S7        29.97R

$$

INZ006>009-017-018-025>027-241400-
NORTHEAST INDIANA

CITY           SKY/WX    TMP DP  RH WIND       PRES   REMARKS
ANGOLA *+      PTSUNNY   72  64  78 S6        30.00R
FORT WAYNE     CLOUDY    73  70  90 S6        30.00R

$$

INZ028-029-035-036-043>045-051>053-241400-
WEST CENTRAL INDIANA

CITY           SKY/WX    TMP DP  RH WIND       PRES   REMARKS
CRAWFORDSVL +  CLOUDY    74  74 100 SE5       30.00R
LAFAYETTE      MOSUNNY   75  70  84 S5        29.98R
TERRE HAUTE    PTSUNNY   79  75  87 SE3       29.99R FOG

$$

INZ030>032-037>040-046>048-054>057-064-065-241400-
CENTRAL INDIANA

CITY           SKY/WX    TMP DP  RH WIND       PRES   REMARKS
INDIANAPOLIS   PTSUNNY   80  70  71 SE5       30.01R
-EAGLE CREEK   PTSUNNY   80  68  66 E6        30.00R
KOKOMO *+      CLOUDY    73  68  83 S7        30.00R
SHELBYVILLE    PTSUNNY   81  73  76 SE3       30.00R

$$

INZ033-034-041-042-049-050-058-059-241400-
EAST CENTRAL INDIANA

CITY           SKY/WX    TMP DP  RH WIND       PRES   REMARKS
MUNCIE         CLOUDY    80  70  71 SE6       30.01R

$$

INZ060-061-067>069-081>083-085>088-241400-
SOUTHWEST INDIANA

CITY           SKY/WX    TMP DP  RH WIND       PRES   REMARKS
EVANSVILLE     SUNNY     81  75  82 SW5       29.99R
HUNTINGBURG *+ SUNNY     81  75  83 S6        30.00S

$$

INZ062-063-066-070>080-084-089>092-241400-
SOUTH CENTRAL AND SOUTHEAST INDIANA

CITY           SKY/WX    TMP DP  RH WIND       PRES   REMARKS
BLOOMINGTON    CLOUDY    79  75  87 SE5       30.01R
MADISON *+     CLOUDY    79  73  83 S3        30.04R
SEYMOUR +      CLOUDY    79  77  94 CALM      30.01R FOG

$$





USA.gov is the U.S. government's official web portal to all federal, state and local government web resources and services.